Orbital Elements at Epoch 2459000.5 (2020-May-31.0) TDB
Reference: JPL 23 (heliocentric ecliptic J2000)
Element | Value | Uncertainty (1-sigma) | Units |
e | .08381338457668451 | 5.5611e-08 | |
a | 3.156322447131469 | 3.1366e-08 | au |
q | 2.891780380022017 | 1.7625e-07 | au |
i | 10.75847493865776 | 5.9605e-06 | deg |
node | 41.69225742572544 | 2.8243e-05 | deg |
peri | 127.1946540377072 | 4.2843e-05 | deg |
M | 321.014705553168 | 3.4427e-05 | deg |
tp | 2459222.303702143051 (2021-Jan-07.80370214) | 0.0001975 | TDB |
period | 2048.191091140701 5.61 | 3.0531e-05 8.359e-08 | d yr |
n | .1757648500460496 | 2.62e-09 | deg/d |
Q | 3.42086451424092 | 3.3995e-08 | au |
|
| | Orbit Determination Parameters
Additional Information
|